Location: Bosdarros
(43.2167°N, 0.3667°W)
Time: 11:58:03
(UTC+00:00)

FENGYUN 1C DEB - Pass Details

Date: 29 October 2021
Orbit: 805 x 871 km, 98.8° (Epoch: 26 November)

Event Time Altitude Azimuth Distance (km) Brightness Sun altitude
Exits shadow 17:47:05 12° 82° (E) 2,242 ? -9.7°
Maximum altitude 17:49:06 15° 58° (ENE) 2,079 ? -10.0°
Drops below altitude 10° 17:51:57 10° 25° (NNE) 2,414 ? -10.6°
Sets 17:55:19 0° 3° (N) 3,362 ? -11.2°
